Espace membre
Imprimable
Wissant, 07-08/09/2019, FRA - Trail de la Côte d'Opale
Liste des rapports > 24km - Classement
Recherche: Page: [1]
178 Entrées
 
Les réclamations ne sont plus acceptées, les résultats sont considérés comme définitifs.
RangNrLicenceNomAgeIOCEquipeTempsTkmMoy.ScrLocalité
1.7155FELLEBOUDT Delphine42BELLES APÉROS DU MARDI2:00:255:02 11.9683
2.6224FVANHALLE Anja47BELACKO2:03:315:09 11.66111
3.6377FLA PENNA Frédéric43BEL2:04:545:13 11.53127
4.7207FBACHY Françoise46FRA2:07:495:20 11.27163
5.7132FTHOMAS Genevieve46BELVERTIGO2:13:105:33 10.81244
6.6238FSPINEUX Sophie47FRAJCPMFFLV2:13:255:34 10.79250
7.6176FFOURNIER Emmanuelle40FRAFAW2:13:345:34 10.78255
8.7578FCOULTHARD Karine47FRAATTICHES RUN NATURE2:14:365:37 10.70265
9.6387FMASTIN Isabelle44FRA2:16:415:42 10.54307
10.6937FBOGGETTO Nadège42FRA2:16:555:43 10.52311
11.7055FCARLY Sandra48FRA2:18:495:48 10.37352
12.7085FVALLEE Astrid44FRA2:18:515:48 10.37353
13.6058FDELATTRE Mélanie49FRA2:18:525:48 10.37354
14.6820FBRABANT Delphine43FRA2:18:575:48 10.36355
15.7179FVANBERGUE Maureen43FRAFABULOUS TEAM2:19:095:48 10.35366
16.63191394435FMINASSIAN Anne-Brigitte49FRASCA2:20:435:52 10.23399
17.6476FCLAUDEL HANOULLE Christelle43FRA2:20:515:53 10.22405
18.6321FDELCUVE Marie-Sophie45BEL2:21:055:53 10.21408
19.7436FVERHULST Priscilla44FRA2:22:495:58 10.08433
20.6535FHUBERT Annabel48BELRUNNINGCLUBMETTET2:23:025:58 10.07439
21.60851533503FDULOT Pascaline48FRAACO2:23:115:58 10.06440
22.7433FGRARD Ingrid46FRAVALENCIENNES TRIATHLON2:23:185:59 10.05444
23.7286FJACOB Anne49FRAASUD2:23:215:59 10.05447
24.74781527609FPERROT Marion41FRAOSML2:23:576:00 10.00457
25.7242628400FBEHAGUE Delphine41FRAOSM LOMME ATHLETISME2:23:586:00 10.00458
26.7432FLEDROLE Melanie42FRA2:24:446:02 9.95478
27.60372072928FLAVENUE Aurore49FRACOURIR AU CHU D'AMIENS2:25:066:03 9.93485
28.6593FDESOMBRE Alexis41FRA2:25:116:03 9.92486
29.7076FSAUQUE Sophie41FRA2:26:346:07 9.83518
30.7317FSAUVÉ Sonia46FRA2:26:396:07 9.82522
31.6575FDUVEILLIER Amélie45BELRCE2:26:576:08 9.80527
32.7558FRENARD Florence42FRA2:27:106:08 9.79530
33.7088FALBERQUE REYES Isabelle44FRA2:27:216:09 9.77532
34.6505FCOEN Marie-France45BEL2:27:566:10 9.73545
35.7190FJUSTIN Sandrine44FRA2:28:216:11 9.71552
36.7264FPETIAUX Morgane40FRAALC VIEUX CONDÉ2:28:296:12 9.70554
37.69581975608FDELANNOY Caroline42FRAJA FRETIN2:28:546:13 9.67562
38.7204FDUCATEZ Catherine48FRA2:29:336:14 9.63574
39.70341345664FGREGORCIC Ingrid48FRAARTOIS ATHLETISME2:29:336:14 9.63575
40.6335FVANDENBEMPT Julie41BEL2:29:386:15 9.62577
41.68691715069FLEFEBVRE Elodie46FRARUN IN CLUB2:30:546:18 9.54606
42.6221FDEMONCEAU Isabelle49BELHOUSSE2:31:076:18 9.53610
43.6818FVALYNSEELE Stephanie42FRA2:31:386:20 9.50618
44.68291777211FFOLLET Nathalie49FRAESC TERGNIER2:32:466:22 9.43643
45.6004FKINZIGER Djurdjura40FRAFOREST RUNNING2:33:396:25 9.37664
46.7350FMAKSYMOWICZ Laurence48FRA2:34:106:26 9.34673
47.7027FDELANGHE Cathy49FRA2:34:236:26 9.33681
48.7042FVERDY Stephanie43FRALES TRAILEURS DE LA POINT2:34:346:27 9.32683
49.60072028022FLACHOR Virginie42FRAARTOIS ATHLETISME2:35:016:28 9.29688
50.6385FKLISSING Madeleine40FRAEB TRAIL 522:35:106:28 9.28693
51.6546FHEULS Fanny45FRA2:35:286:29 9.26699
52.6644FLESAGE Charlotte46BEL2:35:496:30 9.24702
53.7117FDECRUCQ Krystel40FRA2:36:296:32 9.20718
54.6786FROBERT Dorothy45BEL2:36:326:32 9.20720
55.7447FLEGROS Mylene47FRA2:38:016:36 9.11751
56.6277FLENCLU Isabelle47BELTEAM VERTIGO2:38:126:36 9.10758
57.7500FMORMENTYN Charlotte45FRAOSLO2:38:236:36 9.09765
58.7243FCARLIER Peggy45FRA2:39:226:39 9.04790
59.6225FLAVAL Sarah41BELARCH CINEY2:40:236:41 8.98805
60.7329FSINGRE Cathy41FRA2:40:416:42 8.96809
61.64451390835FTROLET Vanessa41FRARUN'IN CLUB2:41:536:45 8.90833
62.6273FBUYSSE Sofie42BELAS RIEME2:42:016:46 8.89835
63.6231FHEMSEN Sarah44FRA2:42:316:47 8.86851
64.6402FAURIEL Gaëlle43FRA2:43:486:50 8.79864
65.6956FLAUNAY Helene46FRA2:44:126:51 8.77872
66.6303FGUILBERT Anne-Sophie47FRALA FOULÉE PONTAMARCQUOISE2:44:356:52 8.75885
67.6483FHUBERT Laurence42FRA2:44:356:52 8.75887
68.6540FMATHIEU Céline41BELJE COURS À INCOURT2:44:596:53 8.73890
69.7487FDAMBRINE Marion40FRAOSLO2:45:266:54 8.70902
70.7550FBOTSON Angélique49FRAJT BESONRIEUX2:46:216:56 8.66920
71.64121744303FDESLANDES Severine40FRAUS CAMON2:46:336:57 8.65923
72.6612FWIAME Anne42BELFAIREBEL2:46:476:57 8.63929
73.6326FDELCAMBRE Daphné48BEL2:47:066:58 8.62937
74.6278FTOFFANIN Natacha48BEL2:47:066:58 8.62938
75.6325FLEYSSENS Valérie48BEL2:47:066:58 8.62939
76.6034FSAVARY Isabelle45FRA2:47:316:59 8.60946
77.7137FGALLEZ Laurence46FRAVERTIGO2:48:097:01 8.56951
78.7110FLICTEVOUT Sophie45FRA2:48:357:02 8.54958
79.6747FMERCIER-LEGRAIN Aurélie41FRA2:48:537:03 8.53960
80.7269FLE MINH Quy46FRA2:49:107:03 8.51964
81.6069FBARRIER Mathilde40FRA2:49:317:04 8.49968
82.6588FMICHEE Nathalie45FRA2:50:227:06 8.45974
83.6012FNAVELLIER Elodie42FRAH2R2:50:397:07 8.44979
84.6340FFILLY Benedi40FRA2:50:407:07 8.44980
85.6493FGOURNAY Audrey42FRAOUTREAU2:51:127:08 8.41987
86.6907FBILLAUD Anne42FRA2:51:157:09 8.41988
87.6265FBLEARD Catherine47FRA2:51:457:10 8.381006
88.7531FNOEL France46BEL2:52:377:12 8.341013
89.7586FJOCKIN Julie42BELDES RÎVIRES2:52:497:13 8.331017
90.6429FBERNICOT Ludivine43FRAFAW2:52:507:13 8.331018
91.69101681258FMELKI Fanny40FRARONCHIN ATHLÉTIC CLUB2:52:577:13 8.331021
92.7176FWASSEIGE Christine48BEL2:52:587:13 8.331022
93.6976FDELINCE Celine41BEL2:53:027:13 8.321024
94.6111FMALFOY FONTAINE Sophie44FRA2:53:097:13 8.321027
95.6877FHUBERT Isabelle41BEL2:53:237:14 8.311036
96.7195FMASQUELIER Karine41FRA2:54:517:18 8.241044
97.7239FPERETTE Gwenaëlle47FRAPHILIPPIDES TEMPLEUVOIS2:55:097:18 8.221050
98.6924FDELEAU Céline48FRA2:55:337:19 8.201059
99.7352FDEVOS Marine41FRA2:55:347:19 8.201060
100.7353FGRIGNION Capucine41FRA2:55:347:19 8.201061
101.6009FPERRAY Isabelle40FRA2:56:377:22 8.151073
102.7100FALLORENT Fanny42FRA2:56:557:23 8.141076
103.7144FRAZEMON Fabienne45FRA2:57:027:23 8.131077
104.6772FAUDENAERT Geneviève41BELJAMES2:57:147:24 8.131080
105.7124FCOLLEAU Sandra48BELJCPMF2:57:157:24 8.121081
106.6847FLUTS Nathalie49FRAJCPMF FOSSES2:57:157:24 8.121082
107.6645FROBERT Sabine43FRAACO OUTREAU2:57:267:24 8.121083
108.6619FDEWULF Gisele40FRA2:57:307:24 8.111084
109.6167FVANDENDOOREN Rachel45FRA2:57:537:25 8.101094
110.6909FBAETEN Annick48BELREMICOURT2:57:537:25 8.101095
111.6191FPIRARD Christelle46BELREMICOURT2:57:537:25 8.101096
112.6925FPENNE Sylvie47FRAALC VIEUX CONDÉ2:57:567:25 8.091097
113.6715FBADA Christel47FRA2:58:167:26 8.081102
114.6913FSLOCK Muriel43BELREMICOURT2:58:177:26 8.081103
115.72201999874FWICKER Céline45FRACAMB2:58:377:27 8.061108
116.6522FCIOCCA Laure41BEL2:58:437:27 8.061109
117.7589FDE AGUIRRE Zuriñe49BEL2:58:507:28 8.051114
118.7012FDEPREZ Sandrine45FRACAMB2:58:527:28 8.051116
119.6462FBIEMAR Isabelle47FRA2:58:567:28 8.051119
120.6282FMARIAGE Delphine40BEL2:59:447:30 8.011132
121.6148FGIRARDEAU Sylvia43FRA2:59:587:30 8.001135
122.6275FROBAYE Sophie42BELRAPTOR TEAM3:00:397:32 7.971142
123.6223FNEIRYNCK Julie43BELETM3:01:367:34 7.931148
124.6998FCOLLIE Anne42BELLES CEUSSES DES COLLINES3:02:217:36 7.901154
125.6137FMONTAY Nathalie45BEL3:02:307:37 7.891156
126.7404FSLOBODZIAN Armelle45FRA3:02:377:37 7.891158
127.6382FLEFER Sophie43BELJE COURS POUR MA FORME3:02:597:38 7.871165
128.7120FTHIELEN Sylvie42BEL3:03:277:39 7.851170
129.6963FHENVAUX Cecile46BEL3:04:167:41 7.821177
130.7136FMUYTJENS Danielle46FRALES FORTS MORTIVÉS3:04:167:41 7.821178
131.7053FMERLIN Sidonie46FRA3:04:437:42 7.801185
132.6564FDENIL Nathalie42BELGAG3:05:137:44 7.781191
133.6607FDESNEUX Magali40BEL3:05:167:44 7.771194
134.6709FDEPELCHIN Anne Cecile40BELTEMPLEUVE3:05:557:45 7.751198
135.6949FCARPENTIER Florence46BELJCPMF SART TILMAN3:06:207:46 7.731201
136.6444FBAUDOUX Sandra46FRAJCPMFFLV3:06:357:47 7.721203
137.7278FCARAVAGGIO Angelique40FRAJC BAUDOUR3:07:097:48 7.701211
138.6802FHUYGHE Perrine40FRA3:07:457:50 7.671219
139.7279FMARCHAL Armelle46FRA3:08:287:52 7.641226
140.6457FNIEDZWIECKI Sandra40FRAALC VIEUX CONDÉ3:08:367:52 7.641227
141.6312FCAILLIAU Sonia41FRA3:08:407:52 7.631228
142.7095FANNE LABOUSSOLE Anne41FRA3:08:407:52 7.631229
143.6723FPIAT Leslie47BELJCB BLANDAIN3:08:447:52 7.631230
144.7001FWINDAL Magali41BELLES TORTUES MESLINOISES3:09:157:54 7.611231LES AVINS
145.6729FBLONDELLE Sophie49BELTORTUES MESLINOISES3:09:167:54 7.611233
146.6856FWATELET Anne-Cécile46BELJCPMF PROFONDEVILLE3:09:407:55 7.591243
147.6560FDE WOLF Barbara41BEL3:09:597:55 7.581248
148.60211936463FBOIS Valerie48FRASOC3:10:587:58 7.541253
149.6542FPETIT Aurélie41FRA3:10:587:58 7.541254
150.6774FROOSEN Dominique40BELCOURIR AU MONT DES CATS3:11:378:00 7.521263
151.7060FROLLAND Audrey-Vanessa40FRACOURIR AU MONT DES CATS3:11:378:00 7.521264
152.7182FRUHANT Lucie42FRACMDC3:11:378:00 7.521265
153.6773FVANDEVILLE Marianne46FRA3:11:478:00 7.511266
154.6604FLEQUENNE Laetitia45FRAJCBLANDAIN3:12:238:01 7.491271
155.6317FCHARLES DOBIAS Stéphanie47FRAJCPMF GENAPPE3:12:308:02 7.481272
156.7590FPOULAIN Marie41BELJCPMF GENAPPE3:12:308:02 7.481273
157.6029FHOVINE Marie-Cécile46FRA3:13:068:03 7.461274
158.6843FFATREZ Marie43BELTEAM TRAIL MONTS ET COLLI3:13:588:05 7.421278
159.6970FFINO Celine44FRA3:14:068:06 7.421279
160.7273FFRANÇOIS Nathalie49BELJCPMG GENAPPE3:14:068:06 7.421280
161.6503FPUTRONE Laurence44FRA3:14:418:07 7.401288
162.6620FLESOILE Stephanie40BELVERTIGO3:14:588:08 7.391291
163.6552FVAN MALLEGHEM Stéphanie43FRARAPTOR TEAM3:15:548:10 7.351295
164.6390FWOUTERS Nancy42FRAJCPMFFLV3:16:358:12 7.331299
165.6547FLEQUENNE Sandra45BELPIPAIX3:16:488:12 7.321302
166.6288FCATTIAUX Isabelle43FRARUNNING FERNELMONT3:17:068:13 7.311308
167.7080FDEWEZ Laurence47BELCAP BEAURAING3:17:098:13 7.301309
168.7420FFACON Nathalie49BELCAP BEAURAING3:20:178:21 7.191330
169.7216FREMMERIE Delphine43FRAJCPMF PECQ3:21:148:24 7.161335
170.6480FSTEPHANIE Stevenart45BEL3:23:498:30 7.071344
171.6036FJOUVENAUX Xaveline46FRA3:25:238:34 7.011345
172.6258FMESTDAGH Ilse49BELJAMES3:28:128:41 6.921348
173.6020FPATIT Isabelle46FRAJOGINREIMS3:31:198:49 6.811353
174.8260FRINCHARD Valerie45FRAJCPMF FLV3:33:358:54 6.741359
175.6235FDEUSE Corinne44BEL3:42:279:17 6.471362
DSQ67492038929FGODOT Virginie45FRAAMICALE DU VAL DE SOMME
DSQ68901218512FGEUJON Dominique46FRASAINT VENANT ATHLÉTISME2:07:15
DSQ7218FCREUSOT Cecile47FRA2:45:27
DNF: abandon; DSQ: disqualifié; Vitesse en km/h
Page: [1]